Regional Weather Roundup
Issued by NWS Charleston, SC

Current Version | Previous Version | Graphics & Text | Print | Product List | Glossary On
Versions: 1 2 3 4 5 6 7 8 9 10 11 12 13 14 15 16 17 18 19 20 21 22 23 24 25 26 27 28 29 30 31 32 33 34 35 36 37 38 39 40 41 42 43 44 45 46 47 48 49 50
479 ASUS42 KCHS 272328 RWRCHS REGIONAL WEATHER ROUNDUP NATIONAL WEATHER SERVICE CHARLESTON SC 700 PM EDT FRI MAY 27 2016 NOTE: "FAIR" INDICATES FEW OR NO CLOUDS BELOW 12,000 FEET WITH NO SIGNIFICANT WEATHER AND/OR OBSTRUCTIONS TO VISIBILITY. NOT ALL STATIONS ARE QUALITY CONTROLLED. USE DATA WITH CAUTION... ESPECIALLY DEWPOINT OBSERVATIONS. SCZ027-030-031-034>040-042>050-280000- ...SOUTHEAST SOUTH CAROLINA... CITY SKY/WX TMP DP RH WIND PRES REMARKS N CHARLESTON MOSUNNY 80 60 50 E12 30.07F WATERFRONT PRK N/A 81 67 62 E13 30.06F MOUNT PLEASANT FAIR 79 64 61 E7 30.08S JOHNS ISLAND FAIR 77 66 69 E10 30.07F PINOPOLIS N/A 90 61 37 VRB3 29.98F MONCKS CORNER FAIR 77 55 47 S7 30.07S SUMMERVILLE FAIR 82 61 47 SE8 30.07S BEAUFORT MCAS SUNNY 80 63 55 E9 30.06F BEAUFORT ARPT FAIR 79 61 53 E14 30.06S HILTON HEAD IS SUNNY 79 66 65 MISG 30.07F WALTERBORO CLEAR 82 59 44 SE8 30.06F ALLENDALE FAIR 82 61 47 SE12 30.04R ...SOUTHERN MIDLANDS AND PEE DEE... CITY SKY/WX TMP DP RH WIND PRES REMARKS GEORGETOWN FAIR 77 61 57 E10 30.10F KINGSTREE FAIR 81 45 28 E6 30.08S ORANGEBURG SUNNY 85 50 29 VRB7 30.04F BARNWELL FAIR 86 57 37 E10 30.04S AIKEN FAIR 81 54 39 E8 30.08S MANNING FAIR 81 50 34 E3 30.07S COLUMBIA MOSUNNY 86 59 39 SE13 30.03F SUMTER SUNNY 85 57 39 SE12 30.03F FLORENCE SUNNY 83 60 45 S12 30.07F MYRTLE BEACH SUNNY 79 61 53 SE7 30.12F N MYRTLE BEACH SUNNY 78 64 61 E10 30.10F $$ GAZ063-065-086>088-099>101-113>116-118-119-134>141-150-280000- ...SOUTHEAST GEORGIA... CITY SKY/WX TMP DP RH WIND PRES REMARKS SAVANNAH ARPT MOSUNNY 80 62 54 E15 30.05F HUNTER AAF SUNNY 79 66 65 E15 30.02F FORT STEWART MOSUNNY 80 63 56 E9 30.02S STATESBORO MOSUNNY 82 63 51 SE6 30.05R SYLVANIA CLEAR 83 58 42 SE5 30.06R CLAXTON FAIR 82 63 51 NE9 30.05R ...CSRA...CENTRAL AND FAR SOUTHEAST GEORGIA... CITY SKY/WX TMP DP RH WIND PRES REMARKS THOMSON MOSUNNY 84 64 51 CALM 30.08R AUGUSTA-BUSH SUNNY 84 60 44 SE8 30.01F AUGUSTA-DANIEL SUNNY 86 57 37 SE8 30.03F SWAINSBORO FAIR 84 54 34 SE9 30.04R VIDALIA SUNNY 81 59 47 E12 30.03S EASTMAN FAIR 86 56 36 SE6 30.03S HAZLEHURST FAIR 83 58 41 E3G16 30.00S ALMA SUNNY 82 62 50 E10G17 30.01S WAYCROSS SUNNY 81 64 56 SE12 30.02R JESUP FAIR 73 61 64 SE8 30.04R BAXLEY FAIR 82 63 51 SE7 30.01S BRUNSWICK SUNNY 82 70 65 NE10 30.05R SAINT SIMONS MOSUNNY 79 67 66 E15 30.02F $$ SCZ027-028-034-036>038-045-046-048>050-GAZ119-141-280000- ...LAKE AND SUPPLEMENTAL COASTAL OBSERVATIONS... STATION/POSITION TIME TEMP WIND PRES WAVE SWELL AIR SEA DIR/SP/G HT/PER HT/PER/DIR (UTC) (F) (DEG/KT/KT) (MB) (FT/S) (FT/S/D) WINYAH BAY 2200 77 100/ 9 1019.0 LAKE MURRAY 2200 83 100/ 8/ 11 1016.9F ACE BASIN NERRS 2200 82 100/ 3 1018.0F FORT PULASKI 2300 70/ 14/ 17 1018.0F SAPELO ISLAND 2300 79 70/ 10 1017.0F $$ ANZ835-935-AMZ111-154-330-350-352-354-370-450-454-472-280000- ...C-MAN AND BUOY OBSERVATIONS... STATION/POSITION TIME TEMP WIND PRES WAVE SWELL AIR SEA DIR/SP/G HT/PER HT/PER/DIR (UTC) (F) (DEG/KT/KT) (MB) (FT/S) (FT/S/D) BUOY 41004 2250 76 77 30/ 16/ 17 1017.8F 4/ 4 2/ 8 BUOY 41008 2250 77 77 80/ 10/ 12 1017.1F 3/ 6 3/130/ 6 FOLLY BEACH CMAN 2300 76 70/ 15/ 16 1018.7F CAPERS NEARSHORE 2308 76 76 80/ 14/ 17 1018.4F FRIPP NEARSHORE 2308 76 77 80/ 16/ 17 1017.4F STATION/POSITION TIME TEMP WIND PRES WAVE SWELL AIR SEA DIR/SP/G HT/PER HT/PER/DIR (UTC) (F) (DEG/KT/KT) (MB) (FT/S) (FT/S/D) 5E ST. MARYS GA 2301 78 N/A 3/ 5 FRYING PAN BUOY 2300 77 76 70/ 12/ 14 1018.8F BUOY 41025 2250 77 78 130/ 10/ 12 1020.3F 3/ 7 2/110/ 7 CAPE LOOKOUT NC 2300 75 110/ 7/ 7 1020.0R BUOY 41002 2250 77 78 80/ 19/ 21 1017.0F 5/ 5 2/100/ 8 BUOY 41010 2220 78 78 50/ 14/ 16 1015.1F ST AUGUSTINE FL 2300 77 80 90/ 12/ 14 1017.0F $$

USA.gov is the U.S. government's official web portal to all federal, state and local government web resources and services.